| time (UTC) | temp C | wind direction | speed KPH | gust KPH | rain 1hr cm | rain 24hr cm | rain mn cm | humidity % | barometer mb |
| 20260506214605 | 18 | 360 | 9.7 | 17.7 | 0.00 | 0.15 | 0.15 | 69 | 1006.8 |
| 20260506213045 | 17 | 360 | 6.4 | 16.1 | 0.00 | 0.15 | 0.15 | 71 | 1006.8 |
| 20260506211543 | 17 | 360 | 4.8 | 16.1 | 0.00 | 0.15 | 0.15 | 70 | 1006.8 |
| 20260506210041 | 17 | 360 | 3.2 | 12.9 | 0.00 | 0.15 | 0.15 | 71 | 1007.2 |
| 20260506204538 | 17 | 360 | 3.2 | 12.9 | 0.00 | 0.15 | 0.15 | 71 | 1007.3 |
| 20260506203036 | 16 | 360 | 4.8 | 9.7 | 0.00 | 0.15 | 0.15 | 71 | 1007.3 |
| 20260506201534 | 16 | 73 | 4.8 | 9.7 | 0.00 | 0.15 | 0.15 | 71 | 1007.5 |
| 20260506200033 | 16 | 360 | 3.2 | 12.9 | 0.00 | 0.15 | 0.15 | 73 | 1007.7 |
| 20260506194529 | 16 | 360 | 4.8 | 9.7 | 0.00 | 0.15 | 0.15 | 71 | 1007.9 |
| 20260506193027 | 15 | 360 | 3.2 | 9.7 | 0.00 | 0.15 | 0.15 | 73 | 1008.0 |
| 20260506191528 | 15 | 360 | 1.6 | 8.0 | 0.00 | 0.15 | 0.15 | 72 | 1008.3 |
| 20260506190021 | 15 | 360 | 1.6 | 6.4 | 0.00 | 0.15 | 0.15 | 76 | 1008.3 |
| 20260506184525 | 14 | 360 | 6.4 | 16.1 | 0.00 | 0.15 | 0.15 | 77 | 1007.8 |
| 20260506183018 | 13 | 360 | 4.8 | 17.7 | 0.00 | 0.15 | 0.15 | 77 | 1007.9 |
| 20260506181517 | 13 | 360 | 9.7 | 20.9 | 0.00 | 0.15 | 0.15 | 79 | 1007.8 |
| 20260506180024 | 13 | 360 | 8.0 | 12.9 | 0.00 | 0.15 | 0.15 | 81 | 1007.8 |
| 20260506174515 | 12 | 360 | 9.7 | 20.9 | 0.00 | 0.15 | 0.15 | 83 | 1008.1 |
| 20260506173014 | 11 | 360 | 11.3 | 20.9 | 0.00 | 0.15 | 0.15 | 85 | 1008.4 |
| 20260506171513 | 11 | 360 | 11.3 | 17.7 | 0.00 | 0.15 | 0.15 | 88 | 1007.8 |
| 20260506170015 | 10 | 360 | 9.7 | 17.7 | 0.00 | 0.15 | 0.15 | 90 | 1008.0 |
| 20260506164517 | 10 | 360 | 4.8 | 14.5 | 0.00 | 0.15 | 0.15 | 91 | 1008.1 |
| 20260506163012 | 10 | 360 | 9.7 | 17.7 | 0.00 | 0.15 | 0.15 | 91 | 1007.9 |
| 20260506161512 | 10 | 360 | 8.0 | 19.3 | 0.00 | 0.15 | 0.15 | 92 | 1007.9 |
| 20260506160011 | 10 | 360 | 6.4 | 22.5 | 0.03 | 0.15 | 0.15 | 92 | 1007.7 |
| 20260506154510 | 10 | 360 | 8.0 | 20.9 | 0.08 | 0.15 | 0.15 | 92 | 1007.3 |
| 20260506153010 | 9 | 360 | 11.3 | 22.5 | 0.10 | 0.15 | 0.15 | 92 | 1008.1 |
| 20260506151514 | 10 | 360 | 8.0 | 19.3 | 0.13 | 0.15 | 0.15 | 92 | 1008.0 |
| 20260506150008 | 9 | 339 | 6.4 | 12.9 | 0.10 | 0.13 | 0.13 | 91 | 1008.7 |
| 20260506144508 | 9 | 360 | 3.2 | 8.0 | 0.08 | 0.08 | 0.08 | 91 | 1010.0 |
| 20260506143006 | 9 | 360 | 1.6 | 9.7 | 0.05 | 0.05 | 0.05 | 90 | 1008.6 |
| 20260506141502 | 9 | 360 | 11.3 | 22.5 | 0.03 | 0.03 | 0.03 | 90 | 1007.4 |
| 20260506140003 | 9 | 51 | 4.8 | 14.5 | 0.03 | 0.03 | 0.03 | 89 | 1007.5 |
| 20260506134502 | 9 | 360 | 6.4 | 17.7 | 0.00 | 0.00 | 0.00 | 89 | 1008.4 |
| 20260506133109 | 9 | 360 | 4.8 | 17.7 | 0.00 | 0.00 | 0.00 | 89 | 1008.4 |
| 20260506131557 | 9 | 360 | 6.4 | 22.5 | 0.00 | 0.00 | 0.00 | 89 | 1007.0 |
| 20260506130056 | 9 | 360 | 12.9 | 22.5 | 0.00 | 0.00 | 0.00 | 90 | 1007.0 |
| 20260506124555 | 9 | 360 | 6.4 | 22.5 | 0.00 | 0.00 | 0.00 | 89 | 1006.6 |
| 20260506123049 | 9 | 360 | 12.9 | 20.9 | 0.00 | 0.00 | 0.00 | 89 | 1006.3 |
| 20260506121546 | 9 | 17 | 8.0 | 17.7 | 0.00 | 0.00 | 0.00 | 88 | 1006.4 |
| 20260506120047 | 10 | 360 | 8.0 | 19.3 | 0.00 | 0.00 | 0.00 | 86 | 1006.3 |
| 20260506114541 | 10 | 360 | 11.3 | 20.9 | 0.00 | 0.00 | 0.00 | 85 | 1006.3 |
| 20260506113046 | 10 | 360 | 9.7 | 22.5 | 0.00 | 0.00 | 0.00 | 84 | 1005.9 |
| 20260506111533 | 10 | 360 | 8.0 | 24.1 | 0.00 | 0.00 | 0.00 | 83 | 1005.6 |
| 20260506110035 | 10 | 360 | 9.7 | 20.9 | 0.00 | 0.00 | 0.00 | 83 | 1005.3 |
| 20260506104527 | 11 | 360 | 8.0 | 20.9 | 0.00 | 0.00 | 0.00 | 82 | 1005.0 |
| 20260506103030 | 11 | 360 | 12.9 | 20.9 | 0.00 | 0.00 | 0.00 | 81 | 1004.8 |
| 20260506101523 | 12 | 360 | 3.2 | 14.5 | 0.00 | 0.00 | 0.00 | 81 | 1004.7 |
| 20260506100027 | 12 | 360 | 6.4 | 17.7 | 0.00 | 0.00 | 0.00 | 81 | 1004.2 |
| 20260506094515 | 12 | 360 | 6.4 | 16.1 | 0.00 | 0.00 | 0.00 | 81 | 1004.1 |
| 20260506093014 | 12 | 360 | 6.4 | 12.9 | 0.00 | 0.00 | 0.00 | 82 | 1003.7 |
| 20260506091510 | 12 | 360 | 6.4 | 16.1 | 0.00 | 0.00 | 0.00 | 81 | 1003.8 |
| 20260506090008 | 12 | 360 | 8.0 | 16.1 | 0.00 | 0.00 | 0.00 | 81 | 1003.6 |
| 20260506084509 | 12 | 360 | 4.8 | 14.5 | 0.00 | 0.00 | 0.00 | 81 | 1003.6 |
| 20260506083009 | 12 | 360 | 6.4 | 19.3 | 0.00 | 0.00 | 0.00 | 81 | 1003.5 |
| 20260506081503 | 12 | 360 | 8.0 | 14.5 | 0.00 | 0.00 | 0.00 | 82 | 1003.2 |
| 20260506073059 | 12 | 360 | 6.4 | 9.7 | 0.00 | 0.00 | 0.00 | 84 | 1003.6 |
| 20260506071556 | 12 | 30 | 6.4 | 16.1 | 0.00 | 0.00 | 0.00 | 84 | 1003.3 |
| 20260506061548 | 13 | 360 | 8.0 | 16.1 | 0.00 | 0.00 | 0.00 | 83 | 1002.6 |
| 20260506044531 | 14 | 360 | 8.0 | 19.3 | 0.00 | 0.00 | 0.00 | 81 | 1003.0 |
| 20260506043028 | 14 | 360 | 8.0 | 17.7 | 0.00 | 0.00 | 0.00 | 80 | 1002.8 |
| 20260506041524 | 15 | 360 | 4.8 | 17.7 | 0.00 | 0.00 | 0.00 | 79 | 1002.8 |
| 20260506040034 | 15 | 360 | 9.7 | 22.5 | 0.00 | 0.00 | 0.00 | 78 | 1002.7 |
| 20260506034521 | 15 | 360 | 14.5 | 22.5 | 0.00 | 0.00 | 0.00 | 78 | 1002.7 |
| 20260506033015 | 16 | 360 | 9.7 | 22.5 | 0.00 | 0.00 | 0.00 | 78 | 1002.4 |
| 20260506031512 | 16 | 360 | 8.0 | 19.3 | 0.00 | 0.00 | 0.00 | 78 | 1001.9 |
| 20260506030012 | 16 | 360 | 9.7 | 20.9 | 0.00 | 0.00 | 0.00 | 78 | 1001.7 |
| 20260506024507 | 16 | 360 | 12.9 | 20.9 | 0.00 | 0.00 | 0.00 | 77 | 1001.3 |
| 20260506023003 | 17 | 360 | 9.7 | 17.7 | 0.00 | 0.00 | 0.00 | 76 | 1000.9 |
| 20260506021615 | 17 | 360 | 6.4 | 14.5 | 0.00 | 0.00 | 0.00 | 76 | 1000.8 |
| 20260506020057 | 17 | 360 | 4.8 | 16.1 | 0.00 | 0.00 | 0.00 | 75 | 1000.5 |
| 20260506014556 | 17 | 360 | 6.4 | 17.7 | 0.00 | 0.00 | 0.00 | 75 | 1000.4 |
| 20260506013054 | 18 | 13 | 8.0 | 17.7 | 0.00 | 0.00 | 0.00 | 74 | 999.6 |
| 20260506011548 | 18 | 360 | 6.4 | 12.9 | 0.00 | 0.00 | 0.00 | 73 | 999.6 |
| 20260506010055 | 18 | 32 | 8.0 | 20.9 | 0.00 | 0.00 | 0.00 | 71 | 998.7 |
| 20260506004548 | 20 | 360 | 9.7 | 20.9 | 0.00 | 0.00 | 0.00 | 71 | 998.5 |
| 20260506003042 | 20 | 360 | 9.7 | 22.5 | 0.00 | 0.00 | 0.00 | 70 | 998.5 |
| 20260506001545 | 20 | 360 | 12.9 | 27.4 | 0.00 | 0.00 | 0.00 | 68 | 998.1 |
| 20260506000039 | 21 | 360 | 9.7 | 17.7 | 0.00 | 0.00 | 0.00 | 68 | 998.4 |
| 20260505234559 | 21 | 360 | 6.4 | 16.1 | 0.00 | 0.00 | 0.00 | 67 | 998.3 |
| 20260505233040 | 22 | 360 | 8.0 | 17.7 | 0.00 | 0.00 | 0.00 | 67 | 998.2 |
| 20260505231537 | 22 | 360 | 12.9 | 24.1 | 0.00 | 0.00 | 0.00 | 65 | 998.1 |
| 20260505230035 | 23 | 13 | 12.9 | 24.1 | 0.00 | 0.00 | 0.00 | 63 | 998.1 |
| 20260505224536 | 24 | 360 | 11.3 | 22.5 | 0.00 | 0.00 | 0.00 | 62 | 997.8 |
| 20260505223035 | 25 | 360 | 8.0 | 20.9 | 0.00 | 0.00 | 0.00 | 62 | 997.6 |
| 20260505221535 | 26 | 360 | 9.7 | 24.1 | 0.00 | 0.00 | 0.00 | 60 | 997.6 |
| 20260505220033 | 26 | 360 | 11.3 | 20.9 | 0.00 | 0.00 | 0.00 | 62 | 997.3 |